Regional Weather Roundup
Issued by NWS

Home | Current Version | Previous Version | Graphics & Text | Print | Product List | Glossary On
Versions: 1 2 3 4 5 6 7 8 9 10 11 12 13 14 15 16 17 18 19 20 21 22 23 24 25 26 27 28 29 30 31 32 33 34 35 36 37 38 39 40 41 42 43 44 45 46 47 48 49 50
000
ASUS43 KMKX 012100
RWRWI

WISCONSIN REGIONAL WEATHER ROUNDUP
NATIONAL WEATHER SERVICE MILWAUKEE/SULLIVAN WI
400 PM CDT WED JUL 01 2015

NOTE: "FAIR" INDICATES FEW OR NO CLOUDS BELOW 12,000 FEET WITH NO
SIGNIFICANT WEATHER AND/OR OBSTRUCTIONS TO VISIBILITY.

WIZ001-002-006>008-014>016-023>028-012200-
NORTHWEST WISCONSIN

CITY           SKY/WX    TMP DP  RH WIND       PRES   REMARKS
SUPERIOR ARPT  SUNNY     73  56  56 SE5       29.99F
ASHLAND        SUNNY     70  48  45 E6        30.01F
HAYWARD        PTSUNNY   72  48  42 CALM      30.01S
SIREN          MOSUNNY   72  48  42 CALM      30.01S
CUMBERLAND     MOSUNNY   70  46  43 E3        30.01S
RICE LAKE      SUNNY     72  49  44 NE9       30.02S
CHETEK         SUNNY     71  51  50 MISG      30.01S
LADYSMITH      SUNNY     72  49  43 CALM      30.02F
EAU CLAIRE     NOT AVBL
MENOMONIE      SUNNY     71  48  43 E3        30.00F
NEW RICHMOND   SUNNY     71  50  47 E7        30.01S
OSCEOLA        SUNNY     73  49  43 NE3       30.03S
$$

WIZ003>005-009-010-017-018-012200-
NORTH CENTRAL WISCONSIN

CITY           SKY/WX    TMP DP  RH WIND       PRES   REMARKS
MANITOWISH WTR SUNNY     68  45  43 E6        30.02S
ARBOR VITAE    SUNNY     69  44  40 NE5       30.02S
WOODRUFF       SUNNY     69  44  40 NE5       30.02S
RHINELANDER    SUNNY     69  42  37 VRB3      30.02S
EAGLE RIVER    SUNNY     66  41  39 CALM      30.01F
LAND O LAKES   SUNNY     67  42  39 N7        30.03S
PHILLIPS       SUNNY     69  47  45 N9        30.00F
TOMAHAWK       MOSUNNY   69  45  42 N6        30.01F
MEDFORD        SUNNY     70  45  40 NE7       30.00F
MERRILL        MOSUNNY   70  47  44 NE6       30.00F
$$

WIZ029-030-035-036-043>047-012200-
CENTRAL WISCONSIN

CITY           SKY/WX    TMP DP  RH WIND       PRES   REMARKS
WAUSAU         MOSUNNY   72  42  34 NE7       29.97F
MOSINEE        SUNNY     70  45  40 N6        29.99F
MARSHFIELD     MOSUNNY   71  44  37 CALM      29.99F
STEVENS POINT  PTSUNNY   67  40  37 NE3       29.99F
WAUPACA        PTSUNNY   71  44  38 NE6       29.98F
WAUTOMA        NOT AVBL
WISC RAPIDS    PTSUNNY   71  42  35 VRB3      30.00F
CAMP DOUGLAS   NOT AVBL
$$

WIZ011>013-019>022-031-037>040-048>050-012200-
NORTHEAST WISCONSIN

CITY           SKY/WX    TMP DP  RH WIND       PRES   REMARKS
ANTIGO         MOSUNNY   67  43  42 CALM      30.01S
SHAWANO        PTSUNNY   72  44  35 E7        29.99S
OCONTO         PTSUNNY   70  47  44 N7        29.97F
STURGEON BAY   MOSUNNY   64  48  55 NE7       30.01S
GREEN BAY      CLOUDY    67  51  56 NE6       29.99F
MANITOWOC      NOT AVBL
APPLETON       MOSUNNY   66  48  52 NE12      29.99F
CLINTONVILLE   PTSUNNY   70  41  35 E5        29.98F
OSHKOSH        PTSUNNY   66  52  60 E8        29.98S
$$

WIZ032>034-041-042-053>061-012200-
SOUTHWEST WISCONSIN

CITY           SKY/WX    TMP DP  RH WIND       PRES   REMARKS
LA CROSSE      PTSUNNY   69  48  47 CALM      29.99S
SPARTA         PTSUNNY   71  43  36 CALM      29.99S
VIROQUA        PTSUNNY   65  47  52 NE3       30.01R
BOSCOBEL       CLOUDY    68  50  52 VRB3      29.98F
PRAIRIE DU CHI CLOUDY    66  48  52 NE6       29.99R
PLATTEVILLE    CLOUDY    68  51  52 NE6       29.98S
$$

WIZ056-057-062-063-064-067-068-012200-
SOUTH CENTRAL WISCONSIN

CITY           SKY/WX    TMP DP  RH WIND       PRES   REMARKS
REEDSBURG      PTSUNNY   67  49  52 N5        29.98S
BARABOO/DELLS  PTSUNNY   68  44  42 NE3       29.98S
LONE ROCK      NOT AVBL
MINERAL POINT  CLOUDY    66  46  48 NE6       29.98F
MADISON        CLOUDY    69  49  48 N9        29.96F
MIDDLETON      CLOUDY    69  43  38 CALM      29.98S
WATERTOWN      PTSUNNY   68  53  59 N7        29.96S
MONROE         CLOUDY    66  46  48 N9        29.97R
JANESVILLE     MOSUNNY   70  48  46 NE7       29.95F
$$

WIZ051-052-058>065-066-070>072-012200-
SOUTHEAST WISCONSIN

CITY           SKY/WX    TMP DP  RH WIND       PRES   REMARKS
MILWAUKEE      CLOUDY    57  50  77 NE9       30.00R
WAUKESHA       MOSUNNY   63  52  67 E7        29.98S
MILWAUKEE/TIMM SUNNY     61  48  63 NE9       30.00R
RACINE         PTSUNNY   58  50  75 E12       30.01R
BURLINGTON     CLOUDY    64  53  68 E8        29.97S
KENOSHA        CLOUDY    60  51  72 E10       29.99S
FOND DU LAC    PTSUNNY   69  53  56 NE14      29.98F
SHEBOYGAN      PTSUNNY   60  53  77 NE8       30.00R
WEST BEND      PTSUNNY   64  52  63 E9        29.98S
JUNEAU         PTSUNNY   66  52  61 N6        29.98S
$$

LSZ147-162-012200-
LAKE SUPERIOR

STATION/POSITION TIME  TEMP    WIND        PRES    WAVE
                       AIR SEA DIR/SP/G            HT/PER
                 (UTC) (F)     (DEG/KT/KT) (MB)    (FT/S)
W MID LAKE BUOY  1950   47 39  190/  6/  6 1017.4F   1
DEVILS ISLAND    2000   61     100/  5/  7 1016.7F
SAXON HARBOR     2040   62        CALM     1016.6F
$$

LMZ867-665-643>646-012200-
LAKE MICHIGAN

STATION/POSITION TIME  TEMP    WIND        PRES    WAVE
                       AIR SEA DIR/SP/G            HT/PER
                 (UTC) (F)     (DEG/KT/KT) (MB)    (FT/S)
CHAMBERS ISLAND  2000   61      60/  5/  8 1015.6F
N MID LAKE BUOY  1950   50 44  230/  4/  6 1015.9R   1/ 4
NORTHPORT PIER   2000   60     360/  9/ 12 1015.6S
SISTER BAY       2014   68     360/ 15/ 19   N/A
ALGOMA LAKESHORE 2010          160/  6/  8   N/A
KEWAUNEE LAKESHO 2000   57     140/  2/  5 1015.3R
SHEBOYGAN LAKESH 2000   52      60/ 11/ 12 1016.3F
PORT WASHINGTON  2000   56      70/  7/ 10 1016.6S
ATWATER BUOY     2000   54      60/  8/ 10 1016.9R
MILWAUKEE LAKESH 2000   54      50/  7/  8   N/A
KENOSHA   LAKESH 2000   57     100/  6/  8 1015.6R
$$

TC  - TEMPERATURE IN CELSIUS
VSB - VISIBILITY IN STATUTE MILES
WCI - WIND CHILL INDEX
HX  - HEAT INDEX



USA.gov is the U.S. government's official web portal to all federal, state and local government web resources and services.